This is the latest recevied weather packets stored in our database for station/object KC5DAQ-24. If no packets are shown the sender has not sent any weather packets the latest 1 day(s).
| Time | Temp. | Humidity | Pressure | Rain* | Wind** | Luminosity | Snow |
|---|---|---|---|---|---|---|---|
| 1777988008 | 23.89° C | 87% | 1008 hPa | 0 mm | 4.02 m/s, 0° | 134 W/m² | - |
| 1777987947 | 23.89° C | 87% | 1008 hPa | 0 mm | 4.02 m/s, 0° | 134 W/m² | - |
| 1777987887 | 23.89° C | 87% | 1008 hPa | 0 mm | 4.02 m/s, 0° | 134 W/m² | - |
| 1777987832 | 23.89° C | 87% | 1007.9 hPa | 0 mm | 4.02 m/s, 0° | 134 W/m² | - |
| 1777987766 | 23.89° C | 87% | 1007.9 hPa | 0 mm | 4.02 m/s, 0° | 134 W/m² | - |
| 1777987706 | 23.89° C | 87% | 1007.8 hPa | 0 mm | 4.02 m/s, 0° | 134 W/m² | - |
| 1777987646 | 23.89° C | 87% | 1007.9 hPa | 0 mm | 4.02 m/s, 0° | 134 W/m² | - |
| 1777987586 | 23.89° C | 87% | 1007.9 hPa | 0 mm | 3.13 m/s, 0° | 134 W/m² | - |
| 1777987505 | 23.89° C | 87% | 1008 hPa | 0 mm | 3.13 m/s, 0° | 93 W/m² | - |
| 1777987443 | 23.89° C | 87% | 1008 hPa | 0 mm | 3.58 m/s, 0° | 130 W/m² | - |
| 1777987384 | 23.89° C | 88% | 1008 hPa | 0 mm | 3.58 m/s, 0° | 130 W/m² | - |
| 1777987324 | 23.89° C | 88% | 1007.9 hPa | 0 mm | 3.58 m/s, 0° | 167 W/m² | - |
| 1777987265 | 23.89° C | 88% | 1007.9 hPa | 0 mm | 2.24 m/s, 0° | - | - |
| 1777987204 | 23.89° C | 88% | 1008 hPa | 0 mm | 1.79 m/s, 0° | 121 W/m² | - |
| 1777987144 | 23.89° C | 88% | 1008 hPa | 0 mm | 0.89 m/s, 0° | 121 W/m² | - |
| 1777987083 | 23.89° C | 88% | 1007.9 hPa | 0 mm | 0.89 m/s, 0° | 121 W/m² | - |
| 1777987023 | 23.89° C | 88% | 1007.9 hPa | 0 mm | 0.89 m/s, 0° | 121 W/m² | - |
| 1777986963 | 23.89° C | 88% | 1007.8 hPa | 0 mm | 0.89 m/s, 0° | 121 W/m² | - |
| 1777986903 | 23.89° C | 88% | 1007.9 hPa | 0 mm | 0.89 m/s, 0° | 121 W/m² | - |
| 1777986843 | 23.89° C | 88% | 1007.7 hPa | 0 mm | 0.89 m/s, 0° | 121 W/m² | - |
| 1777986783 | 23.89° C | 88% | 1007.8 hPa | 0 mm | 0.89 m/s, 0° | 121 W/m² | - |
| 1777986724 | 23.89° C | 88% | 1007.8 hPa | 0 mm | 0.89 m/s, 0° | 121 W/m² | - |
| 1777986661 | 23.89° C | 88% | 1007.7 hPa | 0 mm | 0.89 m/s, 0° | 121 W/m² | - |
| 1777986604 | 23.89° C | 88% | 1007.7 hPa | 0 mm | 1.34 m/s, 0° | 127 W/m² | - |
* Rain latest hour (hover to see other rain measurements)
** Current wind speed in m/s (hover to see current wind gust speed)